Time,TemperatureF,DewpointF,PressureIn,WindDirection,WindDirectionDegrees,WindSpeedMPH,WindSpeedGustMPH,Humidity,HourlyPrecipIn,Conditions,Clouds,dailyrainin,SoftwareType,DateUTC
2013-08-12 00:03:00,70.5,65.1,30.05,South,187,0.0,0.0,83,0.00,,,0.00,meteohub,2013-08-12 05:03:00,
2013-08-12 00:08:00,70.5,65.1,30.05,South,188,0.0,0.0,83,0.00,,,0.00,meteohub,2013-08-12 05:08:00,
2013-08-12 00:13:00,70.2,64.8,30.05,South,188,0.0,0.0,83,0.00,,,0.00,meteohub,2013-08-12 05:13:00,
2013-08-12 00:18:00,70.0,64.9,30.05,South,189,0.0,0.0,84,0.00,,,0.00,meteohub,2013-08-12 05:18:00,
2013-08-12 00:23:00,70.0,64.9,30.05,South,189,0.0,0.0,84,0.00,,,0.00,meteohub,2013-08-12 05:23:00,
2013-08-12 00:28:00,70.2,65.1,30.05,South,189,0.0,0.0,84,0.00,,,0.00,meteohub,2013-08-12 05:28:00,
2013-08-12 00:33:00,70.3,64.9,30.05,South,189,0.0,0.0,83,0.00,,,0.00,meteohub,2013-08-12 05:33:00,
2013-08-12 00:38:00,70.9,65.5,30.05,South,188,0.0,0.0,83,0.00,,,0.00,meteohub,2013-08-12 05:38:00,
2013-08-12 00:43:00,70.9,65.1,30.05,South,188,0.0,0.0,82,0.00,,,0.00,meteohub,2013-08-12 05:43:00,
2013-08-12 00:48:00,70.7,64.9,30.05,South,188,0.0,0.0,82,0.00,,,0.00,meteohub,2013-08-12 05:48:00,
2013-08-12 00:53:00,70.3,64.9,30.05,South,188,0.0,0.0,83,0.00,,,0.00,meteohub,2013-08-12 05:53:00,
2013-08-12 00:58:00,69.8,64.8,30.04,South,188,0.0,0.0,84,0.00,,,0.00,meteohub,2013-08-12 05:58:00,
2013-08-12 01:03:00,69.4,64.8,30.04,South,188,0.0,0.0,85,0.00,,,0.00,meteohub,2013-08-12 06:03:00,
2013-08-12 01:08:00,69.4,64.8,30.04,South,188,0.0,0.0,85,0.00,,,0.00,meteohub,2013-08-12 06:08:00,
2013-08-12 01:14:00,69.1,64.4,30.04,South,181,0.0,0.0,85,0.00,,,0.00,meteohub,2013-08-12 06:14:00,
2013-08-12 01:19:00,68.7,64.4,30.04,South,180,0.0,0.0,86,0.00,,,0.00,meteohub,2013-08-12 06:19:00,
2013-08-12 01:24:00,68.5,64.6,30.04,South,179,0.0,0.0,87,0.00,,,0.00,meteohub,2013-08-12 06:24:00,
2013-08-12 01:29:00,69.1,64.8,30.03,South,178,0.0,0.0,86,0.00,,,0.00,meteohub,2013-08-12 06:29:00,
2013-08-12 01:34:00,69.6,64.6,30.04,South,177,0.0,0.0,84,0.00,,,0.00,meteohub,2013-08-12 06:34:00,
2013-08-12 01:39:00,70.0,64.9,30.03,South,177,0.0,0.0,84,0.00,,,0.00,meteohub,2013-08-12 06:39:00,
2013-08-12 01:44:00,70.3,64.9,30.03,South,178,0.0,0.0,83,0.00,,,0.00,meteohub,2013-08-12 06:44:00,
2013-08-12 01:49:00,70.3,64.6,30.03,South,180,0.0,1.0,82,0.00,,,0.00,meteohub,2013-08-12 06:49:00,
2013-08-12 01:54:00,70.3,64.6,30.02,South,180,0.0,2.0,82,0.00,,,0.00,meteohub,2013-08-12 06:54:00,
2013-08-12 01:59:00,70.2,64.4,30.02,South,177,0.0,2.0,82,0.00,,,0.00,meteohub,2013-08-12 06:59:00,
2013-08-12 02:04:00,70.2,64.4,30.03,South,188,0.0,2.0,82,0.00,,,0.00,meteohub,2013-08-12 07:04:00,
2013-08-12 02:09:00,70.2,64.4,30.03,SSW,204,1.0,0.0,82,0.00,,,0.00,meteohub,2013-08-12 07:09:00,
2013-08-12 02:14:00,70.2,64.8,30.03,SW,217,0.0,4.0,83,0.00,,,0.00,meteohub,2013-08-12 07:14:00,
2013-08-12 02:19:00,69.4,64.4,30.03,SW,218,0.0,4.0,84,0.00,,,0.00,meteohub,2013-08-12 07:19:00,
2013-08-12 02:24:00,69.1,64.4,30.03,SW,218,0.0,4.0,85,0.00,,,0.00,meteohub,2013-08-12 07:24:00,
2013-08-12 02:29:00,68.7,64.0,30.03,SW,218,0.0,4.0,85,0.00,,,0.00,meteohub,2013-08-12 07:29:00,
2013-08-12 02:34:00,68.7,64.4,30.02,SW,218,0.0,0.0,86,0.00,,,0.00,meteohub,2013-08-12 07:34:00,
2013-08-12 02:39:00,69.1,64.4,30.02,SW,218,0.0,0.0,85,0.00,,,0.00,meteohub,2013-08-12 07:39:00,
2013-08-12 02:45:00,69.4,64.4,30.03,SW,218,0.0,0.0,84,0.00,,,0.00,meteohub,2013-08-12 07:45:00,
2013-08-12 02:50:00,69.3,64.2,30.02,SW,218,0.0,0.0,84,0.00,,,0.00,meteohub,2013-08-12 07:50:00,
2013-08-12 02:55:00,68.9,64.2,30.02,SW,218,0.0,0.0,85,0.00,,,0.00,meteohub,2013-08-12 07:55:00,
2013-08-12 03:00:00,68.5,64.2,30.02,SW,218,0.0,0.0,86,0.00,,,0.00,meteohub,2013-08-12 08:00:00,
2013-08-12 03:05:00,68.9,64.2,30.02,SW,218,0.0,0.0,85,0.00,,,0.00,meteohub,2013-08-12 08:05:00,
2013-08-12 03:10:00,69.3,64.2,30.02,SW,219,0.0,0.0,84,0.00,,,0.00,meteohub,2013-08-12 08:10:00,
2013-08-12 03:15:00,70.0,64.2,30.02,SW,218,0.0,1.0,82,0.00,,,0.00,meteohub,2013-08-12 08:15:00,
2013-08-12 03:20:00,70.3,64.2,30.01,SW,217,0.0,2.0,81,0.00,,,0.00,meteohub,2013-08-12 08:20:00,
2013-08-12 03:25:00,70.3,64.2,30.02,SSW,212,0.0,2.0,81,0.00,,,0.00,meteohub,2013-08-12 08:25:00,
2013-08-12 03:30:00,70.2,64.0,30.02,SSW,212,0.0,2.0,81,0.00,,,0.00,meteohub,2013-08-12 08:30:00,
2013-08-12 03:35:00,70.0,64.2,30.02,SSW,212,0.0,2.0,82,0.00,,,0.00,meteohub,2013-08-12 08:35:00,
2013-08-12 03:40:00,70.0,64.2,30.02,SSW,211,0.0,0.0,82,0.00,,,0.00,meteohub,2013-08-12 08:40:00,
2013-08-12 03:45:00,69.8,64.0,30.01,SSW,211,0.0,0.0,82,0.00,,,0.00,meteohub,2013-08-12 08:45:00,
2013-08-12 03:50:00,69.4,64.0,30.01,SSW,212,0.0,0.0,83,0.00,,,0.00,meteohub,2013-08-12 08:50:00,
2013-08-12 03:55:00,69.3,63.9,30.01,SSW,212,0.0,0.0,83,0.00,,,0.00,meteohub,2013-08-12 08:55:00,
2013-08-12 04:00:00,69.1,64.0,30.01,SSW,213,0.0,0.0,84,0.00,,,0.00,meteohub,2013-08-12 09:00:00,
2013-08-12 04:05:00,68.5,63.9,30.01,SW,215,0.0,0.0,85,0.00,,,0.00,meteohub,2013-08-12 09:05:00,
2013-08-12 04:11:00,68.9,63.9,30.01,SSW,212,3.0,3.0,84,0.00,,,0.00,meteohub,2013-08-12 09:11:00,
2013-08-12 04:16:00,69.4,64.0,30.01,SSW,212,0.0,4.0,83,0.00,,,0.00,meteohub,2013-08-12 09:16:00,
2013-08-12 04:21:00,69.6,63.9,30.01,SSW,213,0.0,4.0,82,0.00,,,0.00,meteohub,2013-08-12 09:21:00,
2013-08-12 04:26:00,69.6,63.9,30.01,SW,216,0.0,4.0,82,0.00,,,0.00,meteohub,2013-08-12 09:26:00,
2013-08-12 04:31:00,69.4,63.7,30.01,SW,217,0.0,2.0,82,0.00,,,0.00,meteohub,2013-08-12 09:31:00,
2013-08-12 04:36:00,69.1,63.7,30.01,SW,217,0.0,1.0,83,0.00,,,0.00,meteohub,2013-08-12 09:36:00,
2013-08-12 04:41:00,68.7,63.7,30.01,SW,218,0.0,1.0,84,0.00,,,0.00,meteohub,2013-08-12 09:41:00,
2013-08-12 04:46:00,69.1,63.7,30.00,SW,218,0.0,0.0,83,0.00,,,0.00,meteohub,2013-08-12 09:46:00,
2013-08-12 04:51:00,69.1,63.7,30.00,SW,217,0.0,0.0,83,0.00,,,0.00,meteohub,2013-08-12 09:51:00,
2013-08-12 04:56:00,69.1,63.7,30.00,SW,218,0.0,0.0,83,0.00,,,0.00,meteohub,2013-08-12 09:56:00,
2013-08-12 05:01:00,69.6,63.9,30.00,SW,214,0.0,1.0,82,0.00,,,0.00,meteohub,2013-08-12 10:01:00,
2013-08-12 05:06:00,69.8,63.7,30.00,SSW,213,1.0,1.0,81,0.00,,,0.00,meteohub,2013-08-12 10:06:00,
2013-08-12 05:11:00,69.6,63.5,30.00,SW,214,0.0,1.0,81,0.00,,,0.00,meteohub,2013-08-12 10:11:00,
2013-08-12 05:16:00,69.3,63.1,30.00,SSW,213,0.0,1.0,81,0.00,,,0.00,meteohub,2013-08-12 10:16:00,
2013-08-12 05:21:00,69.4,63.3,30.00,SSW,212,0.0,1.0,81,0.00,,,0.00,meteohub,2013-08-12 10:21:00,
2013-08-12 05:27:00,69.6,63.5,30.00,SSW,211,0.0,1.0,81,0.00,,,0.00,meteohub,2013-08-12 10:27:00,
2013-08-12 05:32:00,69.4,63.7,30.00,SSW,211,0.0,1.0,82,0.00,,,0.00,meteohub,2013-08-12 10:32:00,
2013-08-12 05:37:00,68.9,63.5,30.00,SSW,201,0.0,0.0,83,0.00,,,0.00,meteohub,2013-08-12 10:37:00,
2013-08-12 05:42:00,68.4,63.3,30.00,SSW,197,0.0,0.0,84,0.00,,,0.00,meteohub,2013-08-12 10:42:00,
2013-08-12 05:47:00,67.8,63.5,30.00,SSW,192,0.0,0.0,86,0.00,,,0.00,meteohub,2013-08-12 10:47:00,
2013-08-12 05:52:00,67.5,63.1,30.01,South,188,0.0,0.0,86,0.00,,,0.00,meteohub,2013-08-12 10:52:00,
2013-08-12 05:57:00,67.3,63.3,30.01,SE,145,0.0,0.0,87,0.00,,,0.00,meteohub,2013-08-12 10:57:00,
2013-08-12 06:02:00,66.9,63.3,30.00,ESE,107,0.0,0.0,88,0.00,,,0.00,meteohub,2013-08-12 11:02:00,
2013-08-12 06:07:00,66.6,63.0,30.00,East,86,0.0,1.0,88,0.00,,,0.00,meteohub,2013-08-12 11:07:00,
2013-08-12 06:12:00,66.9,63.3,30.00,East,94,0.0,1.0,88,0.00,,,0.00,meteohub,2013-08-12 11:12:00,
2013-08-12 06:17:00,67.6,63.3,30.01,East,101,0.0,1.0,86,0.00,,,0.00,meteohub,2013-08-12 11:17:00,
2013-08-12 06:21:00,67.6,63.3,30.00,East,93,0.0,0.0,86,0.00,,,0.00,meteohub,2013-08-12 11:21:00,
2013-08-12 06:26:00,67.3,63.0,30.01,East,93,0.0,0.0,86,0.00,,,0.00,meteohub,2013-08-12 11:26:00,
2013-08-12 06:31:00,67.1,63.1,30.00,East,84,0.0,0.0,87,0.00,,,0.00,meteohub,2013-08-12 11:31:00,
2013-08-12 06:36:00,66.7,62.8,30.00,ENE,78,0.0,0.0,87,0.00,,,0.00,meteohub,2013-08-12 11:36:00,
2013-08-12 06:41:00,66.6,63.0,30.01,ENE,78,0.0,1.0,88,0.00,,,0.00,meteohub,2013-08-12 11:41:00,
2013-08-12 06:46:00,66.6,63.0,30.00,East,79,1.0,2.0,88,0.00,,,0.00,meteohub,2013-08-12 11:46:00,
2013-08-12 06:51:00,66.4,62.8,30.00,ENE,75,0.0,2.0,88,0.00,,,0.00,meteohub,2013-08-12 11:51:00,
2013-08-12 06:57:00,66.4,63.0,30.00,ENE,69,0.0,2.0,89,0.00,,,0.00,meteohub,2013-08-12 11:57:00,
2013-08-12 07:02:00,66.6,63.1,30.00,ENE,70,0.0,2.0,89,0.00,,,0.00,meteohub,2013-08-12 12:02:00,
2013-08-12 07:07:00,66.9,63.5,30.00,ENE,60,0.0,0.0,89,0.00,,,0.00,meteohub,2013-08-12 12:07:00,
2013-08-12 07:12:00,67.5,63.9,29.99,ENE,71,1.0,2.0,88,0.00,,,0.00,meteohub,2013-08-12 12:12:00,
2013-08-12 07:17:00,68.0,64.4,30.00,ENE,72,0.0,2.0,88,0.00,,,0.00,meteohub,2013-08-12 12:17:00,
2013-08-12 07:22:00,68.7,64.4,30.00,ENE,69,0.0,2.0,86,0.00,,,0.00,meteohub,2013-08-12 12:22:00,
2013-08-12 07:27:00,69.3,64.6,30.00,ENE,69,0.0,2.0,85,0.00,,,0.00,meteohub,2013-08-12 12:27:00,
2013-08-12 07:32:00,70.0,64.6,30.00,East,79,0.0,1.0,83,0.00,,,0.00,meteohub,2013-08-12 12:32:00,
2013-08-12 07:37:00,70.2,64.8,30.00,ENE,72,0.0,2.0,83,0.00,,,0.00,meteohub,2013-08-12 12:37:00,
2013-08-12 07:42:00,70.0,64.6,30.00,ENE,76,0.0,2.0,83,0.00,,,0.00,meteohub,2013-08-12 12:42:00,
2013-08-12 07:47:00,70.0,64.6,29.99,ENE,72,0.0,2.0,83,0.00,,,0.00,meteohub,2013-08-12 12:47:00,
2013-08-12 07:52:00,70.3,64.6,29.99,ESE,113,0.0,2.0,82,0.00,,,0.00,meteohub,2013-08-12 12:52:00,
2013-08-12 07:57:00,71.4,64.9,29.99,SSE,167,1.0,2.0,80,0.00,,,0.00,meteohub,2013-08-12 12:57:00,
2013-08-12 08:02:00,72.1,65.3,29.99,South,175,5.0,7.0,79,0.00,,,0.00,meteohub,2013-08-12 13:02:00,
2013-08-12 08:07:00,72.9,65.7,29.99,SSE,167,3.0,7.0,78,0.00,,,0.00,meteohub,2013-08-12 13:07:00,
2013-08-12 08:12:00,73.6,65.8,29.99,SSE,156,5.0,7.0,77,0.00,,,0.00,meteohub,2013-08-12 13:12:00,
2013-08-12 08:17:00,73.9,65.8,29.99,South,188,2.0,7.0,76,0.00,,,0.00,meteohub,2013-08-12 13:17:00,
2013-08-12 08:22:00,74.5,66.0,29.99,SSE,155,3.0,7.0,75,0.00,,,0.00,meteohub,2013-08-12 13:22:00,
2013-08-12 08:27:00,75.0,66.2,29.99,SE,144,4.0,7.0,74,0.00,,,0.00,meteohub,2013-08-12 13:27:00,
2013-08-12 08:32:00,75.4,66.2,29.99,South,178,0.0,7.0,73,0.00,,,0.00,meteohub,2013-08-12 13:32:00,
2013-08-12 08:37:00,75.6,65.8,29.99,South,190,6.0,7.0,72,0.00,,,0.00,meteohub,2013-08-12 13:37:00,
2013-08-12 08:42:00,75.9,65.8,29.98,SSW,207,5.0,8.0,71,0.00,,,0.00,meteohub,2013-08-12 13:42:00,
2013-08-12 08:47:00,76.3,66.2,29.99,SSW,200,6.0,8.0,71,0.00,,,0.00,meteohub,2013-08-12 13:47:00,
2013-08-12 08:52:00,76.5,65.5,29.99,SSW,200,6.0,8.0,69,0.00,,,0.00,meteohub,2013-08-12 13:52:00,
2013-08-12 08:57:00,76.5,66.0,29.99,SSW,196,1.0,8.0,70,0.00,,,0.00,meteohub,2013-08-12 13:57:00,
2013-08-12 09:02:00,76.8,66.2,29.98,SW,229,4.0,8.0,70,0.00,,,0.00,meteohub,2013-08-12 14:02:00,
2013-08-12 09:07:00,77.2,66.6,29.98,SW,215,5.0,8.0,70,0.00,,,0.00,meteohub,2013-08-12 14:07:00,
2013-08-12 09:12:00,77.5,66.9,29.98,South,179,5.0,8.0,70,0.00,,,0.00,meteohub,2013-08-12 14:12:00,
2013-08-12 09:17:00,77.4,66.7,29.98,SSW,206,4.0,8.0,70,0.00,,,0.00,meteohub,2013-08-12 14:17:00,
2013-08-12 09:22:00,77.5,66.9,29.98,SSW,196,6.0,9.0,70,0.00,,,0.00,meteohub,2013-08-12 14:22:00,
2013-08-12 09:27:00,77.9,66.9,29.98,SSW,208,5.0,9.0,69,0.00,,,0.00,meteohub,2013-08-12 14:27:00,
2013-08-12 09:32:00,78.1,66.7,29.98,SSW,197,8.0,8.0,68,0.00,,,0.00,meteohub,2013-08-12 14:32:00,
2013-08-12 09:37:00,78.3,66.4,29.98,South,182,5.0,9.0,67,0.00,,,0.00,meteohub,2013-08-12 14:37:00,
2013-08-12 09:42:00,78.3,66.4,29.98,South,182,5.0,9.0,67,0.00,,,0.00,meteohub,2013-08-12 14:42:00,
2013-08-12 09:47:00,78.3,66.4,29.98,North,-999,-999.0,9.0,67,0.00,,,0.00,meteohub,2013-08-12 14:47:00,
2013-08-12 10:02:00,79.7,67.3,29.98,North,-999,-999.0,-999.0,66,0.00,,,0.00,meteohub,2013-08-12 15:02:00,
2013-08-12 10:07:00,80.1,67.3,29.97,North,-999,-999.0,-999.0,65,0.00,,,0.00,meteohub,2013-08-12 15:07:00,
2013-08-12 10:12:00,80.4,67.1,29.97,WSW,257,7.0,7.0,64,0.00,,,0.00,meteohub,2013-08-12 15:12:00,
2013-08-12 10:17:00,80.1,67.3,29.97,WSW,245,5.0,10.0,65,0.00,,,0.00,meteohub,2013-08-12 15:17:00,
2013-08-12 10:22:00,80.2,66.9,29.97,SSW,192,9.0,10.0,64,0.00,,,0.00,meteohub,2013-08-12 15:22:00,
2013-08-12 10:27:00,80.4,67.1,29.97,SSW,202,5.0,10.0,64,0.00,,,0.00,meteohub,2013-08-12 15:27:00,
2013-08-12 10:32:00,80.8,66.6,29.97,SW,229,4.0,9.0,62,0.00,,,0.00,meteohub,2013-08-12 15:32:00,
2013-08-12 10:37:00,80.2,66.6,29.97,SW,223,7.0,9.0,63,0.00,,,0.00,meteohub,2013-08-12 15:37:00,
2013-08-12 10:42:00,80.1,66.7,29.97,SSW,209,7.0,10.0,64,0.00,,,0.00,meteohub,2013-08-12 15:42:00,
2013-08-12 10:47:00,80.4,67.1,29.97,SW,218,6.0,10.0,64,0.00,,,0.00,meteohub,2013-08-12 15:47:00,
2013-08-12 10:52:00,80.8,66.9,29.97,SSW,193,5.0,10.0,63,0.00,,,0.00,meteohub,2013-08-12 15:52:00,
2013-08-12 10:57:00,81.3,67.5,29.96,SW,217,7.0,9.0,63,0.00,,,0.00,meteohub,2013-08-12 15:57:00,
2013-08-12 11:02:00,81.7,67.8,29.97,SW,227,5.0,11.0,63,0.00,,,0.00,meteohub,2013-08-12 16:02:00,
2013-08-12 11:07:00,81.1,67.3,29.97,SSW,207,7.0,11.0,63,0.00,,,0.00,meteohub,2013-08-12 16:07:00,
2013-08-12 11:12:00,81.3,67.5,29.97,South,190,8.0,11.0,63,0.00,,,0.00,meteohub,2013-08-12 16:12:00,
2013-08-12 11:17:00,81.3,67.5,29.97,NW,312,5.0,10.0,63,0.00,,,0.00,meteohub,2013-08-12 16:17:00,
2013-08-12 11:22:00,81.3,67.1,29.97,South,191,1.0,8.0,62,0.00,,,0.00,meteohub,2013-08-12 16:22:00,
2013-08-12 11:27:00,81.7,66.9,29.96,WSW,248,7.0,8.0,61,0.00,,,0.00,meteohub,2013-08-12 16:27:00,
2013-08-12 11:32:00,81.7,66.9,29.96,South,184,5.0,10.0,61,0.00,,,0.00,meteohub,2013-08-12 16:32:00,
2013-08-12 11:37:00,82.8,67.5,29.96,South,187,6.0,10.0,60,0.00,,,0.00,meteohub,2013-08-12 16:37:00,
2013-08-12 11:42:00,82.9,67.1,29.96,South,170,3.0,10.0,59,0.00,,,0.00,meteohub,2013-08-12 16:42:00,
2013-08-12 11:47:00,83.1,66.7,29.96,SSW,196,7.0,10.0,58,0.00,,,0.00,meteohub,2013-08-12 16:47:00,
2013-08-12 11:52:00,82.9,67.6,29.96,SSW,196,8.0,10.0,60,0.00,,,0.00,meteohub,2013-08-12 16:52:00,
2013-08-12 11:57:00,82.9,67.6,29.96,South,189,5.0,10.0,60,0.00,,,0.00,meteohub,2013-08-12 16:57:00,
2013-08-12 12:02:00,83.1,68.4,29.95,SW,217,4.0,10.0,61,0.00,,,0.00,meteohub,2013-08-12 17:02:00,
2013-08-12 12:07:00,83.5,67.6,29.96,WNW,298,3.0,10.0,59,0.00,,,0.00,meteohub,2013-08-12 17:07:00,
2013-08-12 12:12:00,83.3,68.0,29.95,South,173,2.0,8.0,60,0.00,,,0.00,meteohub,2013-08-12 17:12:00,
2013-08-12 12:17:00,83.7,67.3,29.95,SW,219,7.0,8.0,58,0.00,,,0.00,meteohub,2013-08-12 17:17:00,
2013-08-12 12:22:00,83.5,67.6,29.95,SW,215,1.0,7.0,59,0.00,,,0.00,meteohub,2013-08-12 17:22:00,
2013-08-12 12:27:00,83.7,67.3,29.95,SSW,195,7.0,8.0,58,0.00,,,0.00,meteohub,2013-08-12 17:27:00,
2013-08-12 12:32:00,83.8,68.0,29.95,SW,217,7.0,9.0,59,0.00,,,0.00,meteohub,2013-08-12 17:32:00,
2013-08-12 12:37:00,83.7,67.8,29.95,SSW,203,2.0,9.0,59,0.00,,,0.00,meteohub,2013-08-12 17:37:00,
2013-08-12 12:42:00,83.7,67.8,29.94,WSW,239,4.0,9.0,59,0.00,,,0.00,meteohub,2013-08-12 17:42:00,
2013-08-12 12:47:00,82.9,67.1,29.94,WSW,244,7.0,7.0,59,0.00,,,0.00,meteohub,2013-08-12 17:47:00,
2013-08-12 12:52:00,83.1,67.8,29.94,SW,226,0.0,8.0,60,0.00,,,0.00,meteohub,2013-08-12 17:52:00,
2013-08-12 12:57:00,83.8,68.0,29.94,SSW,205,3.0,8.0,59,0.00,,,0.00,meteohub,2013-08-12 17:57:00,
2013-08-12 13:02:00,84.4,68.0,29.94,SW,219,5.0,8.0,58,0.00,,,0.00,meteohub,2013-08-12 18:02:00,
2013-08-12 13:07:00,84.4,68.0,29.94,West,272,0.0,8.0,58,0.00,,,0.00,meteohub,2013-08-12 18:07:00,
2013-08-12 13:12:00,84.7,67.8,29.94,WSW,252,7.0,8.0,57,0.00,,,0.00,meteohub,2013-08-12 18:12:00,
2013-08-12 13:17:00,84.7,68.4,29.94,SW,224,7.0,8.0,58,0.00,,,0.00,meteohub,2013-08-12 18:17:00,
2013-08-12 13:22:00,85.1,67.6,29.94,NW,304,2.0,10.0,56,0.00,,,0.00,meteohub,2013-08-12 18:22:00,
2013-08-12 13:27:00,84.9,68.0,29.94,SW,236,4.0,10.0,57,0.00,,,0.00,meteohub,2013-08-12 18:27:00,
2013-08-12 13:32:00,84.0,67.6,29.94,SSW,205,5.0,10.0,58,0.00,,,0.00,meteohub,2013-08-12 18:32:00,
2013-08-12 13:37:00,84.4,68.5,29.93,SSW,202,6.0,8.0,59,0.00,,,0.00,meteohub,2013-08-12 18:37:00,
2013-08-12 13:42:00,83.7,68.4,29.93,SSW,199,6.0,10.0,60,0.00,,,0.00,meteohub,2013-08-12 18:42:00,
2013-08-12 13:47:00,84.0,68.7,29.93,SSW,202,5.0,10.0,60,0.00,,,0.00,meteohub,2013-08-12 18:47:00,
2013-08-12 13:52:00,84.2,68.4,29.93,SSW,204,5.0,10.0,59,0.00,,,0.00,meteohub,2013-08-12 18:52:00,
2013-08-12 13:58:00,84.4,68.5,29.92,SSW,202,6.0,9.0,59,0.00,,,0.00,meteohub,2013-08-12 18:58:00,
2013-08-12 14:03:00,84.2,68.4,29.92,South,169,2.0,10.0,59,0.00,,,0.00,meteohub,2013-08-12 19:03:00,
2013-08-12 14:08:00,84.0,68.2,29.92,South,169,7.0,10.0,59,0.00,,,0.00,meteohub,2013-08-12 19:08:00,
2013-08-12 14:13:00,84.0,68.7,29.91,WSW,250,5.0,10.0,60,0.00,,,0.00,meteohub,2013-08-12 19:13:00,
2013-08-12 14:18:00,83.8,67.5,29.91,SSW,199,5.0,9.0,58,0.00,,,0.00,meteohub,2013-08-12 19:18:00,
2013-08-12 14:23:00,83.5,66.6,29.91,SW,225,6.0,9.0,57,0.00,,,0.00,meteohub,2013-08-12 19:23:00,
2013-08-12 14:28:00,83.1,66.4,29.91,WSW,252,2.0,9.0,57,0.00,,,0.00,meteohub,2013-08-12 19:28:00,
2013-08-12 14:33:00,83.1,66.7,29.91,SSW,198,6.0,9.0,58,0.00,,,0.00,meteohub,2013-08-12 19:33:00,
2013-08-12 14:38:00,82.9,67.1,29.91,SSW,196,2.0,9.0,59,0.00,,,0.00,meteohub,2013-08-12 19:38:00,
2013-08-12 14:43:00,82.9,66.6,29.91,SW,216,5.0,9.0,58,0.00,,,0.00,meteohub,2013-08-12 19:43:00,
2013-08-12 14:48:00,82.8,66.0,29.91,WNW,298,5.0,9.0,57,0.00,,,0.00,meteohub,2013-08-12 19:48:00,
2013-08-12 14:54:00,82.6,65.3,29.91,WNW,282,2.0,9.0,56,0.00,,,0.00,meteohub,2013-08-12 19:54:00,
2013-08-12 14:59:00,82.9,65.7,29.91,WSW,238,5.0,8.0,56,0.00,,,0.00,meteohub,2013-08-12 19:59:00,
2013-08-12 15:04:00,82.9,65.1,29.91,SW,219,7.0,8.0,55,0.00,,,0.00,meteohub,2013-08-12 20:04:00,
2013-08-12 15:09:00,82.8,65.5,29.91,SW,236,6.0,8.0,56,0.00,,,0.00,meteohub,2013-08-12 20:09:00,
2013-08-12 15:14:00,82.6,65.8,29.91,SW,214,2.0,8.0,57,0.00,,,0.00,meteohub,2013-08-12 20:14:00,
2013-08-12 15:19:00,82.8,66.0,29.91,SSW,205,6.0,8.0,57,0.00,,,0.00,meteohub,2013-08-12 20:19:00,
2013-08-12 15:24:00,82.6,66.4,29.91,West,261,4.0,8.0,58,0.00,,,0.00,meteohub,2013-08-12 20:24:00,
2013-08-12 15:29:00,82.4,66.2,29.91,SW,229,1.0,8.0,58,0.00,,,0.00,meteohub,2013-08-12 20:29:00,
2013-08-12 15:34:00,82.0,66.4,29.90,WSW,243,1.0,8.0,59,0.00,,,0.00,meteohub,2013-08-12 20:34:00,
2013-08-12 15:40:00,82.2,66.4,29.90,WSW,241,1.0,7.0,59,0.00,,,0.00,meteohub,2013-08-12 20:40:00,
2013-08-12 15:45:00,82.0,66.4,29.89,SSW,202,2.0,7.0,59,0.00,,,0.00,meteohub,2013-08-12 20:45:00,
2013-08-12 15:50:00,82.0,67.3,29.89,SW,227,0.0,6.0,61,0.00,,,0.00,meteohub,2013-08-12 20:50:00,
2013-08-12 15:55:00,82.2,66.9,29.89,South,175,2.0,6.0,60,0.00,,,0.00,meteohub,2013-08-12 20:55:00,
2013-08-12 16:00:00,82.2,66.9,29.89,SSW,202,2.0,6.0,60,0.00,,,0.00,meteohub,2013-08-12 21:00:00,
2013-08-12 16:05:00,82.0,67.3,29.88,South,177,4.0,6.0,61,0.00,,,0.00,meteohub,2013-08-12 21:05:00,
2013-08-12 16:10:00,82.0,67.3,29.88,SSW,198,2.0,6.0,61,0.00,,,0.00,meteohub,2013-08-12 21:10:00,
2013-08-12 16:15:00,82.0,67.6,29.88,SSW,203,4.0,6.0,62,0.00,,,0.00,meteohub,2013-08-12 21:15:00,
2013-08-12 16:20:00,81.9,67.6,29.88,SSE,168,4.0,6.0,62,0.00,,,0.00,meteohub,2013-08-12 21:20:00,
2013-08-12 16:25:00,81.9,67.6,29.88,SSW,206,2.0,6.0,62,0.00,,,0.00,meteohub,2013-08-12 21:25:00,
2013-08-12 16:30:00,81.7,67.8,29.88,SSW,200,4.0,6.0,63,0.00,,,0.00,meteohub,2013-08-12 21:30:00,
2013-08-12 16:35:00,81.3,67.5,29.88,SW,217,5.0,7.0,63,0.00,,,0.00,meteohub,2013-08-12 21:35:00,
2013-08-12 16:40:00,81.1,67.8,29.88,SSW,198,5.0,7.0,64,0.00,,,0.00,meteohub,2013-08-12 21:40:00,
2013-08-12 16:45:00,81.0,68.0,29.88,SW,214,0.0,7.0,65,0.00,,,0.00,meteohub,2013-08-12 21:45:00,
2013-08-12 16:51:00,81.0,68.0,29.88,South,191,2.0,7.0,65,0.00,,,0.00,meteohub,2013-08-12 21:51:00,
2013-08-12 16:56:00,81.0,68.0,29.88,SSW,212,4.0,7.0,65,0.00,,,0.00,meteohub,2013-08-12 21:56:00,
2013-08-12 17:01:00,80.8,67.5,29.88,SSW,200,4.0,5.0,64,0.00,,,0.00,meteohub,2013-08-12 22:01:00,
2013-08-12 17:06:00,80.4,67.6,29.88,SW,228,1.0,7.0,65,0.00,,,0.00,meteohub,2013-08-12 22:06:00,
2013-08-12 17:11:00,80.4,67.6,29.88,South,186,2.0,7.0,65,0.00,,,0.00,meteohub,2013-08-12 22:11:00,
2013-08-12 17:17:00,80.8,68.4,29.87,SSW,199,1.0,7.0,66,0.00,,,0.00,meteohub,2013-08-12 22:17:00,
2013-08-12 17:22:00,81.0,68.5,29.87,South,186,5.0,7.0,66,0.00,,,0.00,meteohub,2013-08-12 22:22:00,
2013-08-12 17:27:00,80.8,68.4,29.87,WSW,248,1.0,7.0,66,0.00,,,0.00,meteohub,2013-08-12 22:27:00,
2013-08-12 17:32:00,81.0,68.9,29.87,SSW,202,0.0,6.0,67,0.00,,,0.00,meteohub,2013-08-12 22:32:00,
2013-08-12 17:37:00,81.0,68.9,29.87,SW,231,2.0,6.0,67,0.00,,,0.00,meteohub,2013-08-12 22:37:00,
2013-08-12 17:42:00,81.0,68.9,29.87,SSW,212,4.0,6.0,67,0.00,,,0.00,meteohub,2013-08-12 22:42:00,
2013-08-12 17:47:00,81.0,69.4,29.86,SW,223,4.0,7.0,68,0.00,,,0.00,meteohub,2013-08-12 22:47:00,
2013-08-12 17:52:00,80.8,69.3,29.86,SW,215,0.0,7.0,68,0.00,,,0.00,meteohub,2013-08-12 22:52:00,
2013-08-12 17:57:00,80.8,69.3,29.86,SW,217,4.0,6.0,68,0.00,,,0.00,meteohub,2013-08-12 22:57:00,
2013-08-12 18:02:00,80.8,69.6,29.86,West,262,0.0,6.0,69,0.00,,,0.00,meteohub,2013-08-12 23:02:00,
2013-08-12 18:07:00,80.8,69.6,29.86,WSW,240,1.0,7.0,69,0.00,,,0.00,meteohub,2013-08-12 23:07:00,
2013-08-12 18:12:00,80.6,70.0,29.86,WSW,252,3.0,7.0,70,0.00,,,0.00,meteohub,2013-08-12 23:12:00,
2013-08-12 18:17:00,80.4,70.2,29.86,SW,229,0.0,7.0,71,0.00,,,0.00,meteohub,2013-08-12 23:17:00,
2013-08-12 18:22:00,80.4,70.5,29.86,West,263,0.0,5.0,72,0.00,,,0.00,meteohub,2013-08-12 23:22:00,
2013-08-12 18:27:00,80.2,70.3,29.86,SSW,212,5.0,5.0,72,0.00,,,0.00,meteohub,2013-08-12 23:27:00,
2013-08-12 18:32:00,80.2,70.3,29.86,WSW,245,2.0,8.0,72,0.00,,,0.00,meteohub,2013-08-12 23:32:00,
2013-08-12 18:37:00,80.2,71.2,29.86,SSW,213,1.0,8.0,74,0.00,,,0.00,meteohub,2013-08-12 23:37:00,
2013-08-12 18:42:00,80.2,70.9,29.86,SSW,212,4.0,8.0,73,0.00,,,0.00,meteohub,2013-08-12 23:42:00,
2013-08-12 18:47:00,80.4,70.9,29.86,SW,221,2.0,7.0,73,0.00,,,0.00,meteohub,2013-08-12 23:47:00,
2013-08-12 18:52:00,80.4,71.4,29.86,West,269,3.0,7.0,74,0.00,,,0.00,meteohub,2013-08-12 23:52:00,
2013-08-12 18:57:00,80.2,70.9,29.85,SSW,204,5.0,8.0,73,0.00,,,0.00,meteohub,2013-08-12 23:57:00,
2013-08-12 19:02:00,80.1,71.1,29.85,West,267,2.0,8.0,74,0.00,,,0.00,meteohub,2013-08-13 00:02:00,
2013-08-12 19:07:00,79.9,70.9,29.85,WSW,251,0.0,6.0,74,0.00,,,0.00,meteohub,2013-08-13 00:07:00,
2013-08-12 19:12:00,79.5,70.5,29.85,SW,229,0.0,6.0,74,0.00,,,0.00,meteohub,2013-08-13 00:12:00,
2013-08-12 19:17:00,79.3,70.3,29.84,WSW,256,0.0,4.0,74,0.00,,,0.00,meteohub,2013-08-13 00:17:00,
2013-08-12 19:22:00,79.0,70.3,29.85,West,276,0.0,4.0,75,0.00,,,0.00,meteohub,2013-08-13 00:22:00,
2013-08-12 19:28:00,78.6,69.6,29.85,NW,306,2.0,4.0,74,0.00,,,0.00,meteohub,2013-08-13 00:28:00,
2013-08-12 19:33:00,78.4,69.4,29.85,WSW,239,0.0,6.0,74,0.00,,,0.00,meteohub,2013-08-13 00:33:00,
2013-08-12 19:38:00,78.1,68.7,29.85,West,268,0.0,6.0,73,0.00,,,0.00,meteohub,2013-08-13 00:38:00,
2013-08-12 19:43:00,77.9,68.9,29.86,SSW,210,2.0,6.0,74,0.00,,,0.00,meteohub,2013-08-13 00:43:00,
2013-08-12 19:48:00,77.9,68.5,29.86,WSW,249,0.0,5.0,73,0.00,,,0.00,meteohub,2013-08-13 00:48:00,
2013-08-12 19:53:00,77.7,68.0,29.86,WSW,250,0.0,5.0,72,0.00,,,0.00,meteohub,2013-08-13 00:53:00,
2013-08-12 19:58:00,77.4,67.6,29.86,West,259,2.0,8.0,72,0.00,,,0.00,meteohub,2013-08-13 00:58:00,
2013-08-12 20:03:00,77.0,67.3,29.86,SW,231,3.0,8.0,72,0.00,,,0.00,meteohub,2013-08-13 01:03:00,
2013-08-12 20:08:00,77.0,67.6,29.86,SSW,205,3.0,8.0,73,0.00,,,0.00,meteohub,2013-08-13 01:08:00,
2013-08-12 20:13:00,76.8,67.5,29.86,SSW,198,2.0,6.0,73,0.00,,,0.00,meteohub,2013-08-13 01:13:00,
2013-08-12 20:18:00,76.6,67.3,29.86,SSW,196,2.0,7.0,73,0.00,,,0.00,meteohub,2013-08-13 01:18:00,
2013-08-12 20:23:00,76.3,66.9,29.86,SW,223,4.0,7.0,73,0.00,,,0.00,meteohub,2013-08-13 01:23:00,
2013-08-12 20:28:00,75.9,67.1,29.87,SSW,194,3.0,7.0,74,0.00,,,0.00,meteohub,2013-08-13 01:28:00,
2013-08-12 20:33:00,75.6,66.7,29.86,SSW,207,8.0,8.0,74,0.00,,,0.00,meteohub,2013-08-13 01:33:00,
2013-08-12 20:38:00,75.4,66.9,29.87,SSW,201,1.0,7.0,75,0.00,,,0.00,meteohub,2013-08-13 01:38:00,
2013-08-12 20:43:00,74.8,66.4,29.87,WSW,247,4.0,8.0,75,0.00,,,0.00,meteohub,2013-08-13 01:43:00,
2013-08-12 20:48:00,74.7,66.6,29.87,SW,236,2.0,8.0,76,0.00,,,0.00,meteohub,2013-08-13 01:48:00,
2013-08-12 20:54:00,74.7,66.6,29.87,SW,227,4.0,6.0,76,0.00,,,0.00,meteohub,2013-08-13 01:54:00,
2013-08-12 20:59:00,74.5,66.4,29.88,SW,232,0.0,6.0,76,0.00,,,0.00,meteohub,2013-08-13 01:59:00,
2013-08-12 21:04:00,74.1,66.0,29.88,WSW,253,1.0,7.0,76,0.00,,,0.00,meteohub,2013-08-13 02:04:00,
2013-08-12 21:09:00,73.9,65.8,29.88,SW,223,1.0,7.0,76,0.00,,,0.00,meteohub,2013-08-13 02:09:00,
2013-08-12 21:14:00,73.6,65.8,29.88,SW,221,1.0,7.0,77,0.00,,,0.00,meteohub,2013-08-13 02:14:00,
2013-08-12 21:19:00,73.6,65.8,29.88,WSW,252,2.0,6.0,77,0.00,,,0.00,meteohub,2013-08-13 02:19:00,
2013-08-12 21:24:00,73.6,65.8,29.87,WSW,251,5.0,6.0,77,0.00,,,0.00,meteohub,2013-08-13 02:24:00,
2013-08-12 21:29:00,73.4,65.7,29.87,WSW,254,4.0,6.0,77,0.00,,,0.00,meteohub,2013-08-13 02:29:00,
2013-08-12 21:34:00,73.4,66.2,29.87,SW,235,4.0,6.0,78,0.00,,,0.00,meteohub,2013-08-13 02:34:00,
2013-08-12 21:39:00,73.2,66.0,29.87,WSW,244,2.0,7.0,78,0.00,,,0.00,meteohub,2013-08-13 02:39:00,
2013-08-12 21:44:00,73.2,66.0,29.87,WSW,240,0.0,7.0,78,0.00,,,0.00,meteohub,2013-08-13 02:44:00,
2013-08-12 21:49:00,73.2,66.0,29.87,SW,236,0.0,7.0,78,0.00,,,0.00,meteohub,2013-08-13 02:49:00,
2013-08-12 21:54:00,73.0,65.8,29.87,SW,236,5.0,7.0,78,0.00,,,0.00,meteohub,2013-08-13 02:54:00,
2013-08-12 22:00:00,72.9,66.0,29.88,SW,233,1.0,7.0,79,0.00,,,0.00,meteohub,2013-08-13 03:00:00,
2013-08-12 22:05:00,72.9,66.4,29.88,WSW,244,1.0,6.0,80,0.00,,,0.00,meteohub,2013-08-13 03:05:00,
2013-08-12 22:10:00,72.7,66.2,29.88,SW,231,0.0,6.0,80,0.00,,,0.00,meteohub,2013-08-13 03:10:00,
2013-08-12 22:15:00,72.7,66.2,29.88,SW,227,0.0,6.0,80,0.00,,,0.00,meteohub,2013-08-13 03:15:00,
2013-08-12 22:20:00,72.5,66.4,29.88,West,263,1.0,5.0,81,0.00,,,0.00,meteohub,2013-08-13 03:20:00,
2013-08-12 22:25:00,72.3,66.6,29.88,NW,317,1.0,6.0,82,0.00,,,0.00,meteohub,2013-08-13 03:25:00,
2013-08-12 22:30:00,72.5,66.7,29.88,West,261,0.0,6.0,82,0.00,,,0.00,meteohub,2013-08-13 03:30:00,
2013-08-12 22:35:00,72.5,66.7,29.88,WSW,254,1.0,6.0,82,0.00,,,0.00,meteohub,2013-08-13 03:35:00,
2013-08-12 22:40:00,72.7,67.3,29.88,West,273,0.0,5.0,83,0.00,,,0.00,meteohub,2013-08-13 03:40:00,
2013-08-12 22:45:00,72.7,67.3,29.88,SW,226,2.0,5.0,83,0.00,,,0.00,meteohub,2013-08-13 03:45:00,
2013-08-12 22:52:00,72.9,67.5,29.88,WNW,283,1.0,5.0,83,0.00,,,0.00,meteohub,2013-08-13 03:52:00,
2013-08-12 22:58:00,72.5,67.5,29.88,West,276,1.0,6.0,84,0.00,,,0.00,meteohub,2013-08-13 03:58:00,
2013-08-12 23:01:00,72.3,67.3,29.88,West,273,0.0,6.0,84,0.00,,,0.00,meteohub,2013-08-13 04:01:00,
2013-08-12 23:02:00,72.5,67.5,29.88,West,267,1.0,6.0,84,0.00,,,0.00,meteohub,2013-08-13 04:02:00,
2013-08-12 23:04:00,72.7,67.6,29.88,West,259,0.0,6.0,84,0.00,,,0.00,meteohub,2013-08-13 04:04:00,
2013-08-12 23:05:00,72.7,67.6,29.88,West,259,0.0,6.0,84,0.00,,,0.00,meteohub,2013-08-13 04:05:00,
2013-08-12 23:10:00,72.7,67.6,29.88,NW,321,1.0,4.0,84,0.00,,,0.00,meteohub,2013-08-13 04:10:00,
2013-08-12 23:15:00,72.7,67.8,29.88,NW,324,1.0,2.0,85,0.00,,,0.00,meteohub,2013-08-13 04:15:00,
2013-08-12 23:20:00,72.7,68.2,29.88,NW,317,2.0,5.0,86,0.00,,,0.00,meteohub,2013-08-13 04:20:00,
2013-08-12 23:25:00,72.7,68.2,29.89,NW,313,5.0,5.0,86,0.00,,,0.00,meteohub,2013-08-13 04:25:00,
2013-08-12 23:30:00,72.7,68.2,29.89,WNW,296,5.0,5.0,86,0.00,,,0.00,meteohub,2013-08-13 04:30:00,
2013-08-12 23:35:00,72.9,68.0,29.89,West,281,0.0,5.0,85,0.00,,,0.00,meteohub,2013-08-13 04:35:00,
2013-08-12 23:40:00,73.0,68.2,29.88,West,271,0.0,5.0,85,0.00,,,0.00,meteohub,2013-08-13 04:40:00,
2013-08-12 23:45:00,73.0,68.2,29.88,WSW,243,0.0,5.0,85,0.00,,,0.00,meteohub,2013-08-13 04:45:00,
2013-08-12 23:50:00,73.4,68.0,29.88,SSW,199,3.0,4.0,83,0.00,,,0.00,meteohub,2013-08-13 04:50:00,
2013-08-12 23:55:00,73.2,67.8,29.88,SW,225,3.0,5.0,83,0.00,,,0.00,meteohub,2013-08-13 04:55:00,